Location: C�mpuri de-Sus
(45.9500°N, 22.5500°E)
Time: 11:03:40
(UTC+00:00)

Cosmos 2278 Rocket - Visible Passes

Search period start: 29 May 2022 00:00
Search period end: 08 June 2022 00:00
Orbit: 839 x 847 km, 71.0° (Epoch: 29 May)

Date Brightness Start Highest point End Pass type
(mag) Time Alt. Az. Time Alt. Az. Time Alt. Az.
29 May 3.6 21:14:34 10° N 21:19:35 31° NE 21:23:09 17° ESE visible
29 May 2.5 22:58:26 10° NW 23:03:53 49° WSW 23:04:58 43° SW visible
30 May 3.6 21:00:00 10° N 21:04:57 30° NE 21:08:36 16° ESE visible
30 May 2.5 22:43:49 10° NW 22:49:18 51° WSW 22:50:26 44° SW visible
31 May 3.7 20:45:25 10° N 20:50:20 29° NE 20:54:07 15° ESE visible
31 May 2.5 22:29:12 10° NW 22:34:42 53° WSW 22:35:56 44° SSW visible
01 Jun 3.7 20:30:51 10° N 20:35:42 28° NE 20:39:39 14° ESE visible
01 Jun 2.4 22:14:35 10° NW 22:20:07 55° WSW 22:21:28 44° SSW visible
02 Jun 3.7 20:16:16 10° N 20:21:04 27° NE 20:25:13 13° ESE visible
02 Jun 2.4 21:59:57 10° NNW 22:05:32 58° WSW 22:07:03 43° SSW visible
03 Jun 3.7 20:01:42 10° N 20:06:26 26° NE 20:10:49 11° ESE visible
03 Jun 2.4 21:45:21 10° NNW 21:50:56 60° WSW 21:52:39 42° SSW visible
04 Jun 3.8 19:47:08 10° N 19:51:48 25° NE 19:56:26 10° ESE visible
04 Jun 2.3 21:30:44 10° NNW 21:36:20 63° WSW 21:38:17 40° S visible
05 Jun 3.8 19:32:34 10° N 19:37:10 25° NE 19:41:44 10° ESE visible
05 Jun 2.3 21:16:07 10° NNW 21:21:45 65° WSW 21:23:56 37° S visible
06 Jun 3.8 19:17:59 10° N 19:22:32 24° NE 19:27:02 10° E visible
06 Jun 2.3 21:01:30 10° NNW 21:07:09 68° WSW 21:09:38 34° S visible
07 Jun 3.8 19:03:25 10° N 19:07:53 23° NE 19:12:20 10° E visible
07 Jun 2.3 20:46:53 10° NNW 20:52:32 71° WSW 20:55:21 30° S visible
07 Jun 4.5 22:35:07 10° W 22:35:32 10° W 22:35:57 10° W visible
